Regional Weather Roundup
Issued by NWS Boston, MA

Home | Current Version | Previous Version | Text Only | Print | Product List | Glossary On
Versions: 1 2 3 4 5 6 7 8 9 10 11 12 13 14 15 16 17 18 19 20 21 22 23 24 25 26 27 28
000
ASUS41 KBOX 101610
RWRBOX

REGIONAL WEATHER ROUNDUP
NATIONAL WEATHER SERVICE TAUNTON MA
1100 AM EST SAT DEC 10 2016

NOTE:  "FAIR" INDICATES FEW OR NO CLOUDS BELOW 12,000 FEET WITH NO
SIGNIFICANT WEATHER AND/OR OBSTRUCTIONS TO VISIBILITY.

MAZALL-101700-
EASTERN MASSACHUSETTS

CITY           SKY/WX    TMP DP  RH WIND       PRES   REMARKS
BOSTON         MOSUNNY   26   7  44 W14       30.30F WCI  14
BEVERLY        MOSUNNY   26   7  44 NW13G21   30.27F WCI  15
LAWRENCE       SUNNY     26   6  42 NW15G23   30.27F WCI  14
BEDFORD        PTSUNNY   26   4  38 W14G21    30.28F WCI  14
BLUE HILL        N/A     21   8  57 W17G24    30.24F WCI   7
NORWOOD        MOSUNNY   26   6  42 W12G21    30.30F WCI  16
MARSHFIELD     SUNNY     27   7  43 NW14G22   30.29F WCI  15
PLYMOUTH       SUNNY     26   5  40 W15G24    30.28F WCI  14
TAUNTON        SUNNY     27   5  39 W8        30.29F WCI  19
NEW BEDFORD    SUNNY     28   5  37 W13G21    30.29F WCI  17
$$

MAZALL-101700-
CAPE COD AND THE ISLANDS

CITY           SKY/WX    TMP DP  RH WIND       PRES   REMARKS
FALMOUTH       SUNNY     25   5  42 MISG        N/A
HYANNIS        SUNNY     27   7  42 NW13G20   30.28F WCI  16
CHATHAM        CLOUDY    26  12  55 NW9G18    30.29F WCI  17
PROVINCETOWN   CLOUDY    26  14  60 NW15G23   30.28F WCI  14
NANTUCKET      SUNNY     27   9  46 NW17G24   30.29F WCI  14
MARTHAS VNYRD  SUNNY     28   7  41 NW15      30.30F WCI  16
$$

MAZALL-101700-
CENTRAL AND WESTERN MASSACHUSETTS

CITY           SKY/WX    TMP DP  RH WIND       PRES   REMARKS
WORCESTER      SUNNY     20   3  48 W15       30.24F WCI   6
FITCHBURG      SUNNY     26   5  40 NW16      30.29F WCI  14
ORANGE         MOSUNNY   21   5  50 NW12      30.29F WCI   9
SPRINGFIELD    PTSUNNY   24   5  44 W5        30.31F WCI  18
WESTFIELD      MOSUNNY   25   9  50 W9        30.32F WCI  15
NORTH ADAMS    SUNNY     23   3  42 NW9G18    30.31F WCI  13
PITTSFIELD     CLOUDY    21   9  59 W16       30.26F WCI   7
$$

RIZALL-101700-
RHODE ISLAND

CITY           SKY/WX    TMP DP  RH WIND       PRES   REMARKS
PROVIDENCE     PTSUNNY   28   4  35 NW17G25   30.32F WCI  16
NEWPORT        SUNNY     27   9  46 NW15      30.30F WCI  15
BLOCK ISLAND   MOSUNNY   29  13  51 NW13G23   30.33F WCI  19
SMITHFIELD     MOSUNNY   24   7  48 NW13G21   30.29F WCI  12
WESTERLY       SUNNY     30   7  37 NW9G22    30.34F WCI  22
$$

CTZALL-101700-
CONNECTICUT

CITY           SKY/WX    TMP DP  RH WIND       PRES   REMARKS
BRADLEY INTL   PTSUNNY   28   9  44 NW15      30.34F WCI  16
HARTFORD       SUNNY     28  10  46 NW10      30.36F WCI  19
BRIDGEPORT     SUNNY     32  13  45 NW12      30.37F WCI  23
DANBURY        MOSUNNY   29  13  51 W6        30.35F WCI  23
GROTON         SUNNY     33  10  38 NW15G24   30.34F WCI  23
NEW HAVEN      MOSUNNY   30  14  51 NW6       30.36F WCI  24
CHESTER        FAIR      28   9  43 NW13      30.32F WCI  18
MERIDEN        SUNNY     31  10  41 NW10      30.35F WCI  22
WILLIMANTIC    MOSUNNY   28  10  46 NW12G22   30.34F WCI  18
OXFORD         MOSUNNY   27  10  50 NW7       30.33F WCI  19
$$

MEZ002-015-021-024-NHZ003-005-008-011-012-014-VTZ005-008-101700-
NORTHERN NEW ENGLAND

CITY           SKY/WX    TMP DP  RH WIND       PRES   REMARKS
PORTLAND ME    MOSUNNY   25   3  38 NW14      30.25F WCI  13
BANGOR ME      PTSUNNY   17   2  51 NW16      30.19F WCI   2
CONCORD NH     SUNNY     26   5  40 NW12      30.27F WCI  16
MANCHESTER NH  MOSUNNY   25   4  40 NW15G22   30.27F WCI  13
NASHUA NH      MOSUNNY   24   8  50 W15G21    30.30F WCI  11
PORTSMOUTH NH  MOSUNNY   26   4  38 W15G21    30.24F WCI  14
JAFFREY NH     SUNNY     21   3  45 NW7       30.24F WCI  12
KEENE NH       MOSUNNY   22   5  48 NW14G20   30.29F WCI   9
BURLINGTON VT  PTSUNNY   23   6  48 NW9       30.33F WCI  13
MT. WASHINGTON FOG       -9  -9 100 NW54        N/A  VSB 1/8 WCI -45
$$

NYZ052-076-101700-
EASTERN NEW YORK

CITY           SKY/WX    TMP DP  RH WIND       PRES   REMARKS
ALBANY         MOSUNNY   25   7  46 NW12      30.37F WCI  14
NEW YORK CITY  PTSUNNY   34  20  56 NW15      30.39F WCI  24
$$

ANZALL-101700-
MARINE OBSERVATIONS

STATION/POSITION TIME  TEMP    WIND        PRES    VSBY  WAVE
                       AIR SEA DIR/SP/G                  HT/PER
                 (UTC) (F)     (DEG/KT/KT) (MB)    (MI)  (FT/S)
BOSTON BUOY      1550   26 49  310/ 16/ 19 1024.8F         3/ 3
BUZZARDS BAY     1500   25     310/ 16/ 17 1027.7R
NANTUCKET SOUND  NOT AVBL
MASS BAY-STELLWA 1504   26 48  310/ 17/ 23 1024.9R  1 7/8  3/ 3
ISLE OF SHOALS   1600   24     290/ 19/ 24 1024.0F
S OF BLOCK IS    1555      54                N/A           5/ 5
$$

......................KEY.........................
  SKY/WX - SKY CONDITION/PRESENT WEATHER
  TMP    - TEMPERATURE IN FAHRENHEIT
  DWPT   - DEWPOINT IN FAHRENHEIT
  RH     - RELATIVE HUMIDITY IN PERCENT
  WIND   - DIRECTION AND SPEED IN MPH
  PRES   - MEAN SEA LEVEL PRESSURE IN INCHES OF HG
  WCI    - WIND CHILL INDEX
  VSB    - VISIBILITY IN MILES
  HX     - HEAT INDEX
  TC     - TEMPERATURE IN CELSIUS
  VRB    - VARIABLE WIND DIRECTION
  N/A    - NOT AVAILABLE




USA.gov is the U.S. government's official web portal to all federal, state and local government web resources and services.